小惑星2008 HE

2008 HE (2011)

English version
Home page
Updated on September 3, 2011

---------------------------------------------------------------------

・ プロフィール

・ 軌道要素

Epoch 2011 Aug. 27.0 TT = JDT 2455800.5                 MPC
M   8.28476              (2000.0)            P               Q
n   0.28953108     Peri.  185.33817     +0.75958478     -0.64293582
a   2.2629376      Node   215.30321     +0.60285656     +0.75269351
e   0.9501458      Incl.    9.79432     +0.24412074     +0.14172511
P   3.40           H   18.0           G   0.15           U   3

・ 星図

・ 光度変化

        H = 17.9  G = 0.15

---------------------------------------------------------------------

軌道要素はM.P.E.C. 2011-K37に掲載されたものです。
星図はステラナビゲータ Ver.8 (アストロアーツ) で作成したものです。
光度グラフはComet for Windowsで作成したものです。

---------------------------------------------------------------------

Copyright(C) Seiichi Yoshida (comet@aerith.net). All rights reserved.